Regional Weather Roundup
Issued by NWS

Home | Current Version | Previous Version | Text Only | Print | Product List | Glossary On
Versions: 1 2 3 4 5 6 7 8 9 10 11 12 13 14 15 16 17 18 19 20 21 22 23 24 25 26 27 28 29 30 31 32 33 34 35 36 37 38 39 40 41 42 43 44 45 46 47 48 49 50
000
ASUS44 KJAN 220010
RWRMS

MISSISSIPPI HOURLY WEATHER ROUNDUP
NATIONAL WEATHER SERVICE JACKSON MS
700 PM CDT TUE OCT 21 2014

NOTE: "FAIR: INDICATES FEW OR NO CLOUDS BELOW 12,000 FEET WITH NO
SIGNIFICANT WEATHER AND/OR OBSTRUCTIONS TO VISIBILITY.

MSZ001>002-007>008-010>013-018>021-025>028-034>036-220100-
NORTHWEST MISSISSIPPI

CITY           SKY/WX    TMP DP  RH WIND       PRES   REMARKS
CLARKSDALE     FAIR      64  50  59 N6        30.05S
CLEVELAND      FAIR      66  60  79 N5        30.03R HAZE
GREENWOOD      CLEAR     63  58  83 CALM      30.02R
6HR MIN TEMP:  63; 6HR MAX TEMP:  80;

GREENVILLE     CLEAR     68  56  65 N7        30.02R
6HR MIN TEMP:  68; 6HR MAX TEMP:  81;

GRENADA          N/A    N/A N/A N/A MISG        N/A
OLIVE BRANCH   CLEAR     63  46  55 N5        30.06R
OXFORD         FAIR      57  54  88 CALM      30.07R
TUNICA         CLEAR     63  52  67 CALM      30.06R
$$

MSZ003>006-009-014>017-022>024-029>033-037>039-220100-
NORTHEAST MISSISSIPPI

CITY           SKY/WX    TMP DP  RH WIND       PRES   REMARKS
COLUMBUS AFB   CLEAR     61  55  80 N2        30.03R
6HR MIN TEMP:  61; 6HR MAX TEMP:  78; 6HR PCP: TRACE;

CORINTH        FAIR      61  50  67 CALM      30.04R
GOLDN TRIANGLE CLEAR     66  52  59 N6        30.01S
STARKVILLE     FAIR      63  55  77 CALM      30.02R
TUPELO         CLEAR     64  49  57 NE3       30.04R
6HR MIN TEMP:  63; 6HR MAX TEMP:  77;

$$

MSZ040-058-220100-
CENTRAL MISSISSIPPI

CITY           SKY/WX    TMP DP  RH WIND       PRES   REMARKS
JACKSON INTL   CLEAR     68  58  70 N3        30.01S
6HR MIN TEMP:  67; 6HR MAX TEMP:  80;

JACKSON HAWKNS CLEAR     71  58  63 N3        30.02R
6HR MIN TEMP:  71; 6HR MAX TEMP:  79;

MERIDIAN KEY   CLEAR     64  58  80 CALM      30.00S
6HR MIN TEMP:  63; 6HR MAX TEMP:  79;

MERIDIAN NAS   CLEAR     68  57  68 CALM      30.01R
6HR MIN TEMP:  68; 6HR MAX TEMP:  80;

RAYMOND        FAIR      64  59  82 MISG      30.02R
VICKSBURG      CLEAR     63  60  90 N3        30.01S
6HR MIN TEMP:  63; 6HR MAX TEMP:  80;

$$

MSZ059>079-220100-
SOUTH MISSISSIPPI

CITY           SKY/WX    TMP DP  RH WIND       PRES   REMARKS
BROOKHAVEN     FAIR      66  59  77 CALM      30.03R
HATTIESBURG    CLEAR     65  59  81 N3        30.00R
6HR MIN TEMP:  65; 6HR MAX TEMP:  80;

MCCOMB         CLEAR     71  56  58 N5        30.01R
6HR MIN TEMP:  69; 6HR MAX TEMP:  80;

NATCHEZ        CLEAR     66  61  82 CALM      30.02S
6HR MIN TEMP:  66; 6HR MAX TEMP:  77;

PINE BELT      CLEAR     64  55  72 CALM      30.02S
6HR MIN TEMP:  64; 6HR MAX TEMP:  81;

$$

MSZ080>082-220100-
COASTAL MISSISSIPPI

CITY           SKY/WX    TMP DP  RH WIND       PRES   REMARKS
BAY ST LOUIS   CLEAR     63  55  77 CALM      29.98R
BILOXI         CLEAR     70  60  68 S5        29.98R
6HR MIN TEMP:  69; 6HR MAX TEMP:  81;

PASCAGOULA     CLEAR     63  58  83 CALM      29.98R
6HR MIN TEMP:  63; 6HR MAX TEMP:  82;

GULFPORT       CLEAR     68  60  75 CALM      29.97R
6HR MIN TEMP:  68; 6HR MAX TEMP:  83;

$$



USA.gov is the U.S. government's official web portal to all federal, state and local government web resources and services.